EEST,Max TemperatureF,Mean TemperatureF,Min TemperatureF,Max Dew PointF,MeanDew PointF,Min DewpointF,Max Humidity, Mean Humidity, Min Humidity, Max Sea Level PressureIn, Mean Sea Level PressureIn, Min Sea Level PressureIn, Max VisibilityMiles, Mean VisibilityMiles, Min VisibilityMiles, Max Wind SpeedMPH, Mean Wind SpeedMPH, Max Gust SpeedMPH,PrecipitationIn, CloudCover, Events, WindDirDegrees
2013-3-1,53,46,37,39,36,32,93,66,54,30.21,30.11,30.04,6,6,6,12,6,,0.00,1,,19
2013-3-2,57,46,35,46,40,34,93,75,59,30.04,29.96,29.89,6,6,5,14,4,,0.00,5,,5
2013-3-3,55,52,48,48,42,34,94,73,54,29.98,29.86,29.77,6,6,4,29,18,45,0.00,6,Rain,14
2013-3-4,57,48,39,45,38,32,93,67,51,30.18,30.06,29.98,6,6,6,13,6,,0.00,2,,6
2013-3-5,55,46,37,41,36,34,93,66,47,30.42,30.34,30.18,6,6,6,22,8,,0.00,2,,11
2013-3-6,55,50,44,41,35,32,81,59,44,30.42,30.30,30.15,6,6,6,14,9,,0.00,4,,19
2013-3-7,57,52,46,52,46,41,94,83,76,30.15,30.04,29.95,6,6,4,8,2,,0.00,7,Rain,285
2013-3-8,62,56,50,52,49,46,94,84,63,29.95,29.90,29.86,6,6,6,14,4,,0.00,4,,220
2013-3-9,66,58,50,54,50,45,94,74,55,29.86,29.80,29.74,6,6,5,15,5,,0.00,4,Rain,218
2013-3-10,68,60,53,52,47,41,88,62,43,29.83,29.78,29.74,6,6,6,21,7,,0.00,3,,228
2013-3-11,71,58,46,55,50,43,94,74,48,29.74,29.65,29.59,6,6,6,14,4,,0.00,4,,221
2013-3-12,68,62,55,46,42,37,67,51,33,29.74,29.64,29.59,6,6,6,17,5,,0.00,3,,254
2013-3-13,64,56,48,52,47,39,77,66,51,29.77,29.74,29.71,6,6,6,22,10,,0.00,3,,198
2013-3-14,66,62,57,52,46,34,77,56,39,29.74,29.51,29.33,6,6,3,26,14,37,0.00,6,,184
2013-3-15,60,54,48,43,39,36,71,55,44,29.62,29.49,29.42,6,6,6,22,13,29,0.00,3,Rain,227
2013-3-16,55,48,41,39,35,32,76,59,44,30.01,29.80,29.62,6,6,6,17,8,,0.00,4,,335
2013-3-17,51,43,35,36,33,30,87,64,47,30.18,30.11,30.01,6,6,6,9,3,,0.00,3,,359
2013-3-18,57,45,33,45,39,32,93,76,51,30.21,30.09,29.98,6,6,6,13,4,,0.00,6,Rain,208
2013-3-19,62,56,51,52,48,45,82,70,59,29.98,29.87,29.80,6,6,6,22,11,,0.00,5,,196
2013-3-20,68,56,44,54,49,41,94,75,52,29.92,29.88,29.83,6,6,0,10,4,,0.00,5,Fog,97
2013-3-21,66,58,51,54,52,45,94,75,56,29.83,29.67,29.56,6,6,4,13,4,,0.00,5,,5
2013-3-22,64,58,51,39,34,25,62,42,30,29.77,29.63,29.53,6,6,6,24,15,37,0.00,2,,272
2013-3-23,62,50,39,37,26,16,66,36,16,29.98,29.91,29.77,6,6,6,15,7,,0.00,1,,261
2013-3-24,64,52,41,48,43,34,81,66,49,30.04,29.98,29.95,6,6,6,14,4,,0.00,3,,188
2013-3-25,64,56,48,52,49,43,82,71,59,29.98,29.79,29.62,6,6,4,20,7,28,0.00,6,,143
2013-3-26,66,60,53,52,46,41,82,61,46,29.65,29.57,29.53,6,6,6,21,12,20,0.00,4,Rain,227
2013-3-27,64,60,55,52,45,37,77,59,45,29.83,29.73,29.65,6,6,6,20,9,,0.00,4,,214
2013-3-28,62,56,51,52,47,41,94,71,51,30.09,29.97,29.83,6,6,5,14,6,,0.00,4,Rain,44
2013-3-29,66,58,50,52,50,48,94,79,60,30.06,30.04,30.01,6,6,6,9,2,,0.00,4,,100
2013-3-30,69,58,48,54,51,46,94,73,52,30.01,29.93,29.86,6,6,6,12,3,,0.00,3,,16
2013-3-31,69,61,53,55,50,46,82,66,52,29.89,29.80,29.77,6,6,6,16,5,,0.00,5,,221
2013-4-1,,,,,,,,,,,,,,,,,,,,,,